Gadsden, AL

6:30 PM CDT on October 22, 2019 (GMT -0500)
Gadsden Municipal

Weather History for KGAD - September, 2019

Change the Weather History Date:

Wednesday, September 18, 2019

  Actual Average Record
Temperature  
Mean Temperature 80 °F -  
Max Temperature 93 °F 81 °F 101 °F (1931)
Min Temperature 66 °F 58 °F 46 °F (2000)
Cooling Degree Days 14    
Growing Degree Days 30 (Base 50)    
Moisture  
Dew Point 68 °F    
Average Humidity 70    
Maximum Humidity 97    
Minimum Humidity 42    
Precipitation  
Precipitation 0.00 in - - ()
Sea Level Pressure  
Sea Level Pressure 30.01 in    
Wind  
Wind Speed 3 mph ()    
Max Wind Speed 10 mph    
Max Gust Speed -    
Visibility 9.2 miles    
Events      
Averages and records for this station are not official NWS values.
T = Trace of Precipitation, MM = Missing Value Source: Averaged Metar Reports

Daily Weather History Graph

Daily Weather History Graph

Search for Another Location

Airport or City:

Astronomy

Sep. 18, 2019 Rise Set
Actual Time 6:29 AM CDT 6:47 PM CDT
Civil Twilight 6:04 AM CDT 7:11 PM CDT
Nautical Twilight 5:35 AM CDT 7:41 PM CDT
Astronomical Twilight 5:05 AM CDT 8:10 PM CDT
Moon 9:32 PM CDT (9/18) 10:22 AM CDT (9/18)
Length of Visible Light 13h 07m
Length of Day
12h 17m
Waning Gibbous, 82% of the Moon is Illuminated
Sep 18
Waning Gibbous
Sep 21
Last Quarter
Sep 28
New
Oct 5
First Quarter
Oct 13
Full

Hourly Weather History & Observations

Time (CDT) Temp. Heat Index Dew Point Humidity Pressure Visibility Wind Dir Wind Speed Gust Speed Precip Events Conditions
12:56 AM 72.0 °F - 69.1 °F 91% 29.98 in 10.0 mi Calm Calm - N/A   Clear
1:56 AM 70.0 °F - 68.0 °F 93% 29.98 in 9.0 mi Calm Calm - N/A   Clear
2:56 AM 69.1 °F - 68.0 °F 96% 29.97 in 7.0 mi Calm Calm - N/A   Clear
3:56 AM 68.0 °F - 66.0 °F 93% 29.98 in 4.0 mi Calm Calm - N/A   Clear
4:56 AM 66.9 °F - 66.0 °F 97% 29.98 in 7.0 mi Calm Calm - N/A   Clear
5:56 AM 66.9 °F - 64.9 °F 93% 30.00 in 9.0 mi Calm Calm - N/A   Clear
6:56 AM 66.0 °F - 64.9 °F 96% 30.01 in 5.0 mi Calm Calm - N/A   Clear
7:56 AM 72.0 °F - 66.9 °F 84% 30.03 in 10.0 mi North 3.5 mph - N/A   Clear
8:56 AM 80.1 °F 82.9 °F 69.1 °F 69% 30.03 in 10.0 mi ENE 9.2 mph - N/A   Clear
9:56 AM 82.9 °F 87.0 °F 70.0 °F 65% 30.04 in 10.0 mi NE 10.4 mph - N/A   Clear
10:56 AM 84.9 °F 89.4 °F 70.0 °F 61% 30.04 in 10.0 mi East 5.8 mph - N/A   Clear
11:56 AM 88.0 °F 92.9 °F 70.0 °F 55% 30.03 in 10.0 mi ENE 5.8 mph - N/A   Clear
12:56 PM 91.0 °F 96.6 °F 70.0 °F 50% 30.02 in 10.0 mi East 8.1 mph - N/A   Clear
1:56 PM 91.9 °F 96.9 °F 69.1 °F 47% 30.00 in 10.0 mi SSE 4.6 mph - N/A   Partly Cloudy
2:56 PM 93.9 °F 99.1 °F 69.1 °F 44% 29.98 in 10.0 mi East 8.1 mph - N/A   Partly Cloudy
3:56 PM 93.9 °F 98.6 °F 68.0 °F 43% 29.98 in 10.0 mi ESE 5.8 mph - N/A   Clear
4:56 PM 91.9 °F 94.5 °F 66.0 °F 42% 29.97 in 10.0 mi East 4.6 mph - N/A   Clear
5:56 PM 91.0 °F 93.8 °F 66.0 °F 44% 29.96 in 10.0 mi East 6.9 mph - N/A   Clear
6:56 PM 86.0 °F 90.1 °F 69.1 °F 57% 29.98 in 10.0 mi East 10.4 mph - N/A   Clear
7:56 PM 82.9 °F 87.0 °F 70.0 °F 65% 30.01 in 10.0 mi East 8.1 mph - N/A   Clear
8:56 PM 80.1 °F 83.2 °F 70.0 °F 71% 30.04 in 10.0 mi East 6.9 mph - N/A   Clear
9:56 PM 78.1 °F - 70.0 °F 76% 30.06 in 10.0 mi East 8.1 mph - N/A   Clear
10:56 PM 75.9 °F - 69.1 °F 79% 30.07 in 10.0 mi East 6.9 mph - N/A   Clear
11:56 PM 75.0 °F - 68.0 °F 79% 30.08 in 10.0 mi East 5.8 mph - N/A   Clear